Volver al catálogo

ARIANE 44LP DEB *

LostUNKNOWN
NORAD 45855·DEBRIS·🇫🇷 France

Lanzado Mar 2, 1991 desde Guiana Space Centre

Loading…

Próximos Pases (próximas 24 horas)

TLE

ObsoletoSource: Space-Track

Época: Jul 28, 2025, 09:37 UTC

1 45855U 91015R   25209.40084233  .00166986 -15098-4  19867-2 0  9992
2 45855   6.0773 283.7376 1271595 180.6023 179.2435 13.11799512692577

Sigue ARIANE 44LP DEB * en tiempo real con AllMySat

Download on the App Store